TimeCST,TemperatureF,Dew PointF,Humidity,Sea Level PressureIn,VisibilityMPH,Wind Direction,Wind SpeedMPH,Gust SpeedMPH,PrecipitationIn,Events,Conditions,WindDirDegrees,DateUTC
12:15 AM,46.4,37.4,71,29.71,10.0,East,21.9,29.9,N/A,,Overcast,80,2013-02-21 06:15:00
12:35 AM,46.4,37.4,71,29.70,10.0,East,19.6,31.1,N/A,,Overcast,80,2013-02-21 06:35:00
12:55 AM,48.2,37.4,66,29.71,10.0,East,15.0,21.9,N/A,,Overcast,100,2013-02-21 06:55:00
1:15 AM,48.2,39.2,71,29.70,10.0,East,16.1,23.0,N/A,,Overcast,100,2013-02-21 07:15:00
1:35 AM,50.0,41.0,71,29.70,10.0,East,17.3,27.6,N/A,,Overcast,100,2013-02-21 07:35:00
1:55 AM,50.0,41.0,71,29.71,10.0,ESE,15.0,26.5,N/A,Rain,Light Rain,110,2013-02-21 07:55:00
2:15 AM,50.0,42.8,76,29.70,10.0,East,16.1,23.0,N/A,,Overcast,100,2013-02-21 08:15:00
2:35 AM,50.0,42.8,76,29.72,10.0,East,5.8,20.7,N/A,,Overcast,100,2013-02-21 08:35:00
2:55 AM,50.0,42.8,76,29.71,7.0,East,10.4,-,N/A,,Drizzle,90,2013-02-21 08:55:00
3:15 AM,48.2,42.8,82,29.69,5.0,East,11.5,17.3,0.01,Rain,Light Rain,90,2013-02-21 09:15:00
3:35 AM,48.2,44.6,87,29.67,5.0,East,17.3,20.7,0.02,Rain,Rain,90,2013-02-21 09:35:00
3:55 AM,48.2,44.6,87,29.65,4.0,East,17.3,24.2,0.02,Rain,Light Rain,90,2013-02-21 09:55:00
4:15 AM,48.2,44.6,87,29.64,5.0,East,19.6,28.8,N/A,Rain,Rain,80,2013-02-21 10:15:00
4:35 AM,48.2,44.6,87,29.63,4.0,East,19.6,31.1,N/A,Rain,Light Rain,90,2013-02-21 10:35:00
4:55 AM,48.2,44.6,87,29.63,5.0,East,18.4,27.6,N/A,Rain,Light Rain,90,2013-02-21 10:55:00
5:15 AM,48.2,44.6,87,29.63,4.0,East,18.4,21.9,N/A,Rain,Light Rain,90,2013-02-21 11:15:00
5:55 AM,50.0,46.4,87,29.62,3.0,East,16.1,27.6,0.10,Rain,Rain,90,2013-02-21 11:55:00
6:15 AM,50.0,46.4,87,29.63,3.0,East,16.1,21.9,N/A,Rain,Light Rain,90,2013-02-21 12:15:00
6:35 AM,50.0,46.4,87,29.62,2.5,East,20.7,25.3,N/A,Rain,Light Rain,90,2013-02-21 12:35:00
6:55 AM,50.0,46.4,87,29.61,2.5,East,18.4,26.5,N/A,Rain,Light Rain,100,2013-02-21 12:55:00
7:15 AM,50.0,48.2,94,29.60,1.2,East,23.0,28.8,N/A,,Overcast,100,2013-02-21 13:15:00
7:35 AM,51.8,48.2,88,29.58,0.8,ESE,21.9,28.8,N/A,,Overcast,110,2013-02-21 13:35:00
7:55 AM,51.8,50.0,94,29.61,1.2,East,18.4,25.3,N/A,Thunderstorm,Overcast,100,2013-02-21 13:55:00
8:15 AM,53.6,51.8,94,29.63,1.0,SE,15.0,29.9,N/A,Rain-Thunderstorm,Light Thunderstorms and Rain,140,2013-02-21 14:15:00
8:35 AM,53.6,51.8,94,29.70,1.5,West,6.9,-,0.35,Rain,Heavy Rain,260,2013-02-21 14:35:00
8:55 AM,53.6,51.8,94,29.72,10.0,WNW,12.7,-,0.35,Rain,Light Rain,300,2013-02-21 14:55:00
9:15 AM,51.8,50.0,94,29.72,10.0,NW,11.5,-,N/A,,Overcast,320,2013-02-21 15:15:00
9:35 AM,53.6,51.8,94,29.72,10.0,NNW,10.4,-,N/A,,Scattered Clouds,330,2013-02-21 15:35:00
9:55 AM,55.4,51.8,88,29.72,10.0,WNW,8.1,-,N/A,,Clear,300,2013-02-21 15:55:00
10:15 AM,57.2,53.6,88,29.73,10.0,WNW,11.5,-,N/A,,Clear,290,2013-02-21 16:15:00
10:35 AM,59.0,51.8,77,29.74,10.0,West,11.5,17.3,N/A,,Scattered Clouds,270,2013-02-21 16:35:00
10:55 AM,59.0,50.0,72,29.75,10.0,West,15.0,-,N/A,,Clear,280,2013-02-21 16:55:00
11:15 AM,60.8,48.2,63,29.75,10.0,West,18.4,-,N/A,,Mostly Cloudy,280,2013-02-21 17:15:00
11:35 AM,59.0,46.4,63,29.75,10.0,West,13.8,23.0,N/A,,Mostly Cloudy,270,2013-02-21 17:35:00
11:55 AM,59.0,46.4,63,29.75,10.0,West,11.5,-,N/A,,Scattered Clouds,260,2013-02-21 17:55:00
12:15 PM,60.8,46.4,59,29.74,10.0,West,13.8,18.4,N/A,,Clear,260,2013-02-21 18:15:00
12:35 PM,62.6,42.8,48,29.73,10.0,WSW,13.8,18.4,N/A,,Clear,240,2013-02-21 18:35:00
12:55 PM,62.6,39.2,42,29.73,10.0,WSW,19.6,27.6,N/A,,Clear,250,2013-02-21 18:55:00
1:15 PM,64.4,37.4,37,29.72,10.0,WSW,17.3,28.8,N/A,,Clear,250,2013-02-21 19:15:00
1:35 PM,64.4,37.4,37,29.71,10.0,West,20.7,27.6,N/A,,Clear,260,2013-02-21 19:35:00
1:55 PM,66.2,33.8,30,29.70,10.0,West,18.4,31.1,N/A,,Clear,260,2013-02-21 19:55:00
2:15 PM,66.2,32.0,28,29.70,10.0,WSW,21.9,-,N/A,,Clear,240,2013-02-21 20:15:00
2:35 PM,68.0,32.0,26,29.70,10.0,WSW,25.3,29.9,N/A,,Clear,240,2013-02-21 20:35:00
2:55 PM,68.0,32.0,26,29.69,10.0,West,20.7,28.8,N/A,,Clear,260,2013-02-21 20:55:00
3:15 PM,68.0,32.0,26,29.70,10.0,WSW,23.0,26.5,N/A,,Clear,240,2013-02-21 21:15:00
3:35 PM,68.0,30.2,24,29.70,10.0,WSW,19.6,25.3,N/A,,Clear,250,2013-02-21 21:35:00
3:55 PM,68.0,28.4,23,29.70,10.0,West,17.3,27.6,N/A,,Clear,260,2013-02-21 21:55:00
4:15 PM,68.0,28.4,23,29.71,10.0,WSW,19.6,24.2,N/A,,Clear,250,2013-02-21 22:15:00
4:35 PM,68.0,26.6,21,29.73,10.0,West,18.4,24.2,N/A,,Clear,260,2013-02-21 22:35:00
4:55 PM,68.0,28.4,23,29.73,10.0,West,16.1,28.8,N/A,,Clear,260,2013-02-21 22:55:00
5:15 PM,68.0,28.4,23,29.73,10.0,West,12.7,23.0,N/A,,Clear,260,2013-02-21 23:15:00
5:35 PM,64.4,30.2,28,29.74,10.0,WSW,10.4,-,N/A,,Clear,250,2013-02-21 23:35:00
5:55 PM,64.4,30.2,28,29.76,10.0,West,10.4,-,N/A,,Clear,270,2013-02-21 23:55:00
6:15 PM,62.6,30.2,30,29.77,10.0,West,5.8,-,N/A,,Clear,270,2013-02-22 00:15:00
6:35 PM,60.8,32.0,34,29.79,10.0,WNW,3.5,-,N/A,,Clear,290,2013-02-22 00:35:00
6:55 PM,59.0,32.0,36,29.80,10.0,WNW,3.5,-,N/A,,Clear,290,2013-02-22 00:55:00
7:15 PM,55.4,32.0,41,29.80,10.0,NW,4.6,-,N/A,,Clear,320,2013-02-22 01:15:00
7:35 PM,51.8,33.8,50,29.81,10.0,Calm,Calm,-,N/A,,Clear,0,2013-02-22 01:35:00
7:55 PM,50.0,35.6,58,29.82,10.0,Calm,Calm,-,N/A,,Clear,0,2013-02-22 01:55:00
8:15 PM,51.8,32.0,47,29.83,10.0,WNW,9.2,-,N/A,,Clear,300,2013-02-22 02:15:00
8:35 PM,50.0,35.6,58,29.84,10.0,NNW,3.5,-,N/A,,Clear,330,2013-02-22 02:35:00
8:55 PM,50.0,33.8,54,29.85,10.0,NNW,3.5,-,N/A,,Clear,330,2013-02-22 02:55:00
9:15 PM,50.0,35.6,58,29.85,10.0,Calm,Calm,-,N/A,,Clear,0,2013-02-22 03:15:00
9:35 PM,46.4,33.8,62,29.86,10.0,Calm,Calm,-,N/A,,Clear,0,2013-02-22 03:35:00
9:55 PM,46.4,33.8,62,29.87,10.0,Calm,Calm,-,N/A,,Clear,0,2013-02-22 03:55:00
10:15 PM,50.0,33.8,54,29.90,10.0,NW,8.1,-,N/A,,Clear,310,2013-02-22 04:15:00
10:35 PM,50.0,37.4,62,29.90,10.0,NNW,13.8,-,N/A,,Clear,340,2013-02-22 04:35:00
10:55 PM,50.0,39.2,66,29.89,10.0,NNW,18.4,25.3,N/A,,Clear,340,2013-02-22 04:55:00
11:15 PM,48.2,37.4,66,29.90,10.0,North,15.0,20.7,N/A,,Clear,350,2013-02-22 05:15:00
11:35 PM,46.4,37.4,71,29.90,10.0,North,15.0,-,N/A,,Clear,350,2013-02-22 05:35:00